Torna al catalogo

SL-8 DEB *

AttivoLEO
NORAD 18519·DEBRIS·🇷🇺 Russia

Lanciato Feb 21, 1984 da Plesetsk Cosmodrome

Loading…

Prossimi Passaggi (prossime 24 ore)

TLE

AggiornatoSource: Space-Track

Epoca: Sep 14, 2026, 09:34 UTC

1 18519U 84019D   26257.39875374  .00001617  00000-0  25557-3 0  9996
2 18519  74.0402 128.6651 0008168 139.9945 220.1831 14.73175569 74281

Traccia SL-8 DEB * in tempo reale con AllMySat

Download on the App Store